Regional Weather Roundup
Issued by NWS

Home | Current Version | Previous Version | Graphics & Text | Print | Product List | Glossary On
Versions: 1 2 3 4 5 6 7 8 9 10 11 12 13 14 15 16 17 18 19 20 21 22 23 24 25 26 27 28 29 30 31 32 33 34 35 36 37 38 39 40 41 42 43 44 45 46 47 48 49 50
000
ASUS43 KOAX 011710
RWRNE

WEATHER ROUNDUP FOR NEBRASKA
NATIONAL WEATHER SERVICE OMAHA NE
1200 PM CDT FRI AUG 01 2014

NOTES: SATELLITE DATA IS BEING USED TO AUGMENT CLOUD COVER ABOVE
       12000 FEET.
       "FAIR" INDICATES FEW OR NO CLOUDS BELOW 12,000 FEET WITH NO
       SIGNIFICANT WEATHER AND/OR OBSTRUCTIONS TO VISIBILITY.

  * THESE STATIONS DO NOT REPORT WEATHER SUCH AS RAIN...SNOW OR FOG.

NEZ001>004-019>022-054>056-011800-
NEBRASKA PANHANDLE

CITY           SKY/WX    TMP DP  RH WIND       PRES   REMARKS
SCOTTSBLUFF    SUNNY     83  53  35 VRB3      30.21S
ALLIANCE       SUNNY     84  42  22 CALM      30.19F
CHADRON        SUNNY     89  45  21 MISG      30.13S
KIMBALL        SUNNY     79  45  30 S6        30.25S
SIDNEY         SUNNY     85  44  23 NW7       30.24S
$$

NEZ057>060-069>072-079>082-011800-
SOUTHWEST NEBRASKA

CITY           SKY/WX    TMP DP  RH WIND       PRES   REMARKS
NORTH PLATTE   SUNNY     82  56  40 CALM      30.15F
IMPERIAL       SUNNY     84  49  29 E5        30.18R
LEXINGTON      SUNNY     81  59  47 NW3       30.14S
MCCOOK         SUNNY     82  57  42 S3        30.15S
OGALLALA       SUNNY     84  51  32 SW3       30.17F
$$

NEZ005>010-023>029-035>040-094-011800-
NORTH CENTRAL NEBRASKA

CITY           SKY/WX    TMP DP  RH WIND       PRES   REMARKS
VALENTINE      SUNNY     85  53  33 S6        30.13S
AINSWORTH      SUNNY     81  53  37 SE6       30.14F
BROKEN BOW     SUNNY     80  58  46 CALM      30.14F
O`NEILL        MOSUNNY   79  57  46 SE5       30.14S
ORD            SUNNY     80  56  43 NE5       30.13S
THEDFORD       SUNNY     84  54  35 NE3       30.16S
$$

NEZ041-046>049-061>064-073>077-083>087-011800-
SOUTH CENTRAL NEBRASKA

CITY           SKY/WX    TMP DP  RH WIND       PRES   REMARKS
GRAND ISLAND   SUNNY     78  60  53 NE7       30.13R
AURORA         SUNNY     78  62  59 N9        30.11S
HASTINGS       SUNNY     79  58  48 N12       30.12S
HEBRON         SUNNY     79  58  48 N8        30.08S
HOLDREGE       SUNNY     79  61  54 NE6       30.14S
KEARNEY *      SUNNY     81  59  47 N8        30.14S
YORK           SUNNY     75  63  64 N13       30.11R
$$

NEZ011>018-030>034-042>045-011800-
NORTHEAST NEBRASKA

CITY           SKY/WX    TMP DP  RH WIND       PRES   REMARKS
NORFOLK        SUNNY     78  60  53 E8        30.11F
ALBION         SUNNY     77  61  56 NE7       30.13R
BLAIR          MOSUNNY   76  62  63 NE6       30.10S
COLUMBUS *     SUNNY     77  61  57 NE10G16   30.11S
FREMONT        SUNNY     79  62  55 E6        30.11S
TEKAMAH        PTSUNNY   78  62  57 VRB3      30.10S
WAYNE          SUNNY     77  62  59 CALM      30.12F
$$

NEZ050>053-065>068-078-088>093-011800-
SOUTHEAST NEBRASKA

CITY           SKY/WX    TMP DP  RH WIND       PRES   REMARKS
LINCOLN        MOSUNNY   79  59  50 E8        30.09R
OMAHA EPPLEY   PTSUNNY   76  63  64 VRB3      30.09S
BEATRICE       MOSUNNY   76  62  62 NE6       30.07R
FALLS CITY     SUNNY     80  64  58 SE13G18   30.06S
NEBRASKA CITY  PTSUNNY   78  60  53 SE9       30.08S
PLATTSMOUTH    MOSUNNY   78  62  56 E9        30.09R
$$

NEZ044-045-051>053-067-011800-
OMAHA AREA

CITY           SKY/WX    TMP DP  RH WIND       PRES   REMARKS
OMAHA EPPLEY   PTSUNNY   76  63  64 VRB3      30.09S
BLAIR          MOSUNNY   76  62  63 NE6       30.10S
FREMONT        SUNNY     79  62  55 E6        30.11S
MILLARD        MOSUNNY   81  62  53 SE6       30.08S
OFFUTT AFB     MOSUNNY   78  66  67 NE8       30.08S
PLATTSMOUTH    MOSUNNY   78  62  56 E9        30.09R
WAHOO          FAIR      78  62  57 E9        30.09S
$$



USA.gov is the U.S. government's official web portal to all federal, state and local government web resources and services.